Stations météo

réclame
Mon MeteoGroup
Mannheim, Allemagne (10729): Température de l'air & dewpoint: 18.10.2018 07:00:00 - 24.10.2018 07:00:00 (CEST)Mannheim, Allemagne (10729): Température de l'air 5cm & Température de l'air -5cm: 18.10.2018 07:00:00 - 24.10.2018 07:00:00 (CEST)Mannheim, Allemagne (10729): Température de l'air -20cm & Température de l'air -100cm: 18.10.2018 07:00:00 - 24.10.2018 07:00:00 (CEST)Mannheim, Allemagne (10729): Vitesse du vent & gusts: 18.10.2018 07:00:00 - 24.10.2018 07:00:00 (CEST)Mannheim, Allemagne (10729): Direction du vent: 18.10.2018 07:00:00 - 24.10.2018 07:00:00 (CEST)Mannheim, Allemagne (10729): reduced air pressure: 18.10.2018 07:00:00 - 24.10.2018 07:00:00 (CEST)Mannheim, Allemagne (10729): visibility: 18.10.2018 07:00:00 - 24.10.2018 07:00:00 (CEST)Mannheim, Allemagne (10729): Ensoleillement: 18.10.2018 07:00:00 - 24.10.2018 07:00:00 (CEST)Mannheim, Allemagne (10729): Quantités de précipitations: 18.10.2018 07:00:00 - 24.10.2018 07:00:00 (CEST)
Date & Time tt [°C] td [°C] tt 5cm [°C] tt -5cm [°C] tt -20cm [°C] tt -100cm [°C] ff [km/h] ff [knt] fx [km/h] fx [knt] dd ppp [hPa] vv [km] sd [min] rr [mm]
24.10.2018 07:00:00 11,8 6,7 11,7 12,2 13,3 15,7 10 6 21 11 SSW 1022,0 36 0 0,0
24.10.2018 06:00:00 11,7 6,6 11,5 12,2 13,3 15,7 9 5 18 10 S 1022,6 38 0 0,0
24.10.2018 05:00:00 11,8 6,7 11,3 12,3 13,3 15,7 9 5 16 9 SSW 1022,4 40 0 0,0
24.10.2018 04:00:00 11,9 6,5 11,6 12,2 13,3 15,7 9 5 26 14 SSW 1022,7 40 0 0,0
24.10.2018 03:00:00 11,6 5,7 11,4 12,3 13,3 15,8 15 8 22 12 SSW 1023,3 38 0 0,0
24.10.2018 02:00:00 11,7 5,6 11,4 12,3 13,3 15,8 11 6 26 14 SSW 1024,1 39 0 0,0
24.10.2018 01:00:00 12,3 5,5 11,9 12,5 13,3 15,8 13 7 24 13 SSW 1024,2 41 0 0,0
24.10.2018 00:00:00 12,9 5,5 12,5 12,5 13,3 15,8 17 9 24 13 SW 1024,8 46 0 0,0
23.10.2018 23:00:00 13,1 5,1 12,4 12,6 13,3 15,8 15 8 26 14 WSW 1024,7 45 0 0,0
23.10.2018 22:00:00 13,7 4,8 13,1 12,7 13,3 15,8 16 9 32 18 WSW 1024,9 46 0 0,0
23.10.2018 21:00:00 13,9 3,8 13,3 12,7 13,3 15,8 16 9 27 15 WSW 1024,6 50 0 0,0
23.10.2018 20:00:00 13,7 3,0 13,2 12,8 13,3 15,8 13 7 24 13 WSW 1024,2 57 0 0,0
23.10.2018 19:00:00 13,7 2,0 13,1 13,0 13,2 15,8 10 5 23 12 SW 1023,9 56 0 0,0
23.10.2018 18:00:00 13,6 2,2 12,5 13,4 13,1 15,9 13 7 21 11 SW 1023,6 61 0 0,0
23.10.2018 17:00:00 14,1 1,6 14,5 13,6 12,9 15,9 8 4 24 13 WSW 1024,1 58 0 0,0
23.10.2018 16:00:00 13,7 2,0 14,6 13,7 12,8 15,9 17 9 30 16 SW 1024,3 46 6 0,0
23.10.2018 15:00:00 14,3 3,6 16,6 13,0 12,7 15,9 16 8 27 14 SW 1025,0 49 7 0,0
23.10.2018 14:00:00 12,9 4,4 14,2 12,2 12,6 15,9 13 7 19 10 SSW 1025,8 38 0 0,0
23.10.2018 13:00:00 12,1 5,3 13,5 11,8 12,5 15,9 10 6 19 10 SSW 1027,3 24 0 0,0
23.10.2018 12:00:00 10,1 5,7 13,1 10,6 12,5 15,9 9 5 17 9 S 1028,6 20 0 0,0
23.10.2018 11:00:00 7,7 5,3 8,7 9,6 12,6 15,9 11 6 16 8 S 1029,2 13 0 0,0
23.10.2018 10:00:00 6,6 5,6 7,0 8,6 12,7 15,9 9 5 12 6 S 1029,6 8 0 0,0
23.10.2018 09:00:00 5,3 4,6 4,5 7,9 12,9 15,9 8 4 14 8 S 1029,5 8 0 0,0
23.10.2018 08:00:00 3,7 3,4 0,1 7,9 13,1 15,9 3 2 5 3 E 1030,1 11 0 0,0
23.10.2018 07:00:00 2,8 2,5 1,1 8,0 13,3 15,9 4 2 6 3 NE 1030,5 7 0 0,0
23.10.2018 06:00:00 2,0 2,0 -2,4 8,4 13,5 16,0 2 1 4 2 S 1030,5 3,0 0 0,0
23.10.2018 05:00:00 2,1 1,9 -2,1 8,9 13,7 16,0 0 0 3 2 N 1031,9 0,1 0 0,0
23.10.2018 04:00:00 2,8 2,7 0,0 9,2 13,9 16,0 2 1 5 3 NW 1032,3 0,3 0 0,0
23.10.2018 03:00:00 4,0 4,0 -0,6 9,9 14,0 16,0 4 2 7 4 NNE 1032,3 8 0 0,0
23.10.2018 02:00:00 4,1 3,2 -0,5 10,6 14,2 16,0 4 2 8 4 NNW 1032,4 25 0 0,0
23.10.2018 01:00:00 5,5 4,4 1,1 11,6 14,3 16,0 2 1 6 4 W 1032,6 28 0 0,0
23.10.2018 00:00:00 8,5 5,7 5,6 12,6 14,4 16,0 6 4 15 8 N 1032,8 42 0 0,0
22.10.2018 23:00:00 10,0 6,4 9,8 12,7 14,4 16,0 13 7 18 10 NNW 1032,9 57 0 0,0
22.10.2018 22:00:00 10,2 6,5 8,3 13,2 14,5 16,0 9 5 19 10 N 1032,4 40 0 0,0
22.10.2018 21:00:00 11,8 7,1 11,0 14,0 14,5 16,0 13 7 28 15 N 1031,9 42 0 0,0
22.10.2018 20:00:00 12,4 7,1 12,4 14,3 14,4 16,1 17 9 29 16 NNE 1031,9 51 0 0,0
22.10.2018 19:00:00 12,6 8,0 12,7 14,8 14,4 16,1 17 9 29 16 N 1031,1 23 0 0,0
22.10.2018 18:00:00 13,2 8,0 13,5 15,3 14,2 16,1 14 7 34 18 N 1029,9 15 0 0,0
22.10.2018 17:00:00 14,5 6,7 15,1 15,9 14,0 16,1 21 11 31 17 N 1029,2 24 0 0,0
22.10.2018 16:00:00 15,5 5,6 16,6 16,5 13,8 16,1 21 12 31 17 N 1028,8 45 0 0,0
22.10.2018 15:00:00 16,5 4,5 19,6 16,7 13,5 16,1 15 8 24 13 N 1028,7 35 24 0,0
22.10.2018 14:00:00 15,9 3,8 21,0 15,8 13,2 16,1 11 6 18 10 N 1029,1 22 54 0,0
22.10.2018 13:00:00 15,0 3,8 20,8 14,1 13,1 16,1 6 3 14 7 N 1029,2 24 60 0,0
22.10.2018 12:00:00 12,5 4,5 16,9 11,9 13,1 16,1 7 4 13 7 NNW 1029,4 31 60 0,0
22.10.2018 11:00:00 9,2 4,2 11,2 10,2 13,1 16,1 3 2 8 4 WNW 1029,2 13 55 0,0
22.10.2018 10:00:00 7,1 3,3 8,9 9,0 13,2 16,1 4 2 8 4 NW 1029,2 18 60 0,0
22.10.2018 09:00:00 5,0 3,3 3,9 8,3 13,4 16,1 5 3 9 5 NW 1028,9 11 30 0,0
22.10.2018 08:00:00 4,4 3,6 1,2 8,5 13,6 16,1 5 3 9 5 NNW 1028,1 10 0 0,0
22.10.2018 07:00:00 4,9 3,9 1,4 8,6 13,8 16,1 5 3 9 5 N 1027,9 12 0 0,0
22.10.2018 06:00:00 4,2 3,5 -0,7 8,9 13,9 16,1 4 2 8 4 NNW 1027,3 11 0 0,0
22.10.2018 05:00:00 4,4 2,9 0,2 9,3 14,1 16,1 5 3 8 5 NW 1027,2 15 0 0,0
22.10.2018 04:00:00 4,6 2,8 0,1 9,7 14,3 16,2 3 1 8 5 NNW 1027,0 22 0 0,0
22.10.2018 03:00:00 4,3 2,2 0,4 10,1 14,5 16,2 3 2 6 3 NW 1026,9 25 0 0,0
22.10.2018 02:00:00 5,5 2,8 1,0 10,5 14,7 16,2 4 2 5 3 W 1027,0 24 0 0,0
22.10.2018 01:00:00 5,4 2,1 1,6 11,0 14,9 16,2 4 2 5 3 NNW 1027,1 27 0 0,0
22.10.2018 00:00:00 6,2 2,9 1,9 11,5 15,1 16,2 2 1 6 3 N 1027,3 30 0 0,0
21.10.2018 23:00:00 8,1 3,7 2,9 12,2 15,2 16,2 3 2 7 4 ENE 1027,0 35 0 0,0
21.10.2018 22:00:00 8,5 3,4 3,7 13,1 15,3 16,2 2 1 10 5 N 1026,7 39 0 0,0
21.10.2018 21:00:00 11,5 4,5 9,0 13,9 15,4 16,2 8 4 10 5 NNE 1026,6 41 0 0,0
21.10.2018 20:00:00 12,8 4,7 10,2 14,8 15,4 16,2 6 4 11 6 NNE 1026,6 42 0 0,0
21.10.2018 19:00:00 13,9 3,8 10,0 16,2 15,3 16,2 6 3 12 6 E 1026,3 45 22 0,0
21.10.2018 18:00:00 16,6 4,1 16,7 17,8 15,1 16,2 8 5 13 7 ESE 1026,2 60 60 0,0
21.10.2018 17:00:00 17,6 3,5 21,0 18,7 14,8 16,2 9 5 15 8 SE 1026,3 58 60 0,0
21.10.2018 16:00:00 17,5 3,0 21,9 18,8 14,5 16,2 6 3 16 9 S 1026,8 60 60 0,0
21.10.2018 15:00:00 17,3 3,2 22,7 18,1 14,2 16,2 8 5 19 10 NE 1027,1 47 60 0,0
21.10.2018 14:00:00 16,5 3,5 21,4 16,8 13,9 16,2 5 3 19 10 ESE 1027,8 49 60 0,0
21.10.2018 13:00:00 15,7 4,7 20,8 14,9 13,8 16,2 4 2 10 5 S 1028,6 32 60 0,0
21.10.2018 12:00:00 13,2 5,4 17,8 12,6 13,8 16,2 4 2 11 6 W 1029,4 23 60 0,0
21.10.2018 11:00:00 10,0 4,8 12,7 10,7 13,8 16,2 6 3 9 5 NW 1029,8 19 60 0,0
21.10.2018 10:00:00 7,1 3,1 7,9 9,2 14,0 16,2 2 1 6 3 NW 1030,2 12 45 0,0
21.10.2018 09:00:00 3,8 2,9 1,1 8,9 14,2 16,2 3 2 8 4 NW 1029,9 7 0 0,0
21.10.2018 08:00:00 3,4 2,5 -0,3 9,2 14,4 16,2 4 2 9 5 NW 1029,4 8 0 0,0
21.10.2018 07:00:00 4,6 3,1 0,6 9,4 14,6 16,2 5 3 12 6 NNW 1029,5 10 0 0,0
21.10.2018 06:00:00 4,2 3,2 0,8 9,6 14,8 16,2 5 3 8 4 NNW 1029,9 9 0 0,0
21.10.2018 05:00:00 4,1 3,2 0,0 10,0 15,0 16,2 4 2 9 5 NNW 1029,5 8 0 0,0
21.10.2018 04:00:00 4,0 2,5 0,2 10,4 15,2 16,2 5 3 8 5 NNW 1029,6 10 0 0,0
21.10.2018 03:00:00 4,1 3,0 0,3 11,0 15,4 16,3 5 3 8 4 NNW 1030,0 11 0 0,0
21.10.2018 02:00:00 6,1 4,1 1,5 11,6 15,6 16,3 5 3 8 4 N 1030,0 13 0 0,0
21.10.2018 01:00:00 7,0 4,8 2,5 12,3 15,8 16,3 6 3 11 6 NNW 1030,1 18 0 0,0
21.10.2018 00:00:00 8,7 5,4 6,4 12,9 16,0 16,3 9 5 13 7 NNW 1030,2 25 0 0,0
20.10.2018 23:00:00 9,5 5,8 5,2 13,5 16,1 16,3 5 3 11 6 NNW 1029,9 20 0 0,0
20.10.2018 22:00:00 10,8 6,6 7,3 14,2 16,2 16,3 6 3 13 7 N 1029,9 17 0 0,0
20.10.2018 21:00:00 12,1 7,1 10,2 14,9 16,3 16,3 7 4 14 8 N 1029,7 17 0 0,0
20.10.2018 20:00:00 13,5 7,6 10,7 15,7 16,4 16,3 6 4 16 9 N 1029,5 17 0 0,0
20.10.2018 19:00:00 14,4 7,2 12,2 16,7 16,3 16,3 10 5 14 8 NNW 1028,9 24 0 0,0
20.10.2018 18:00:00 16,3 7,0 14,8 18,1 16,2 16,3 8 5 21 11 NNW 1028,2 25 28 0,0
20.10.2018 17:00:00 17,4 7,0 18,6 19,1 16,0 16,3 11 6 19 11 NNW 1028,3 23 59 0,0
20.10.2018 16:00:00 17,8 6,3 20,4 19,6 15,7 16,3 11 6 23 12 N 1028,4 25 60 0,0
20.10.2018 15:00:00 18,2 6,9 21,3 19,4 15,5 16,3 12 6 23 13 N 1028,5 24 60 0,0
20.10.2018 14:00:00 18,1 6,5 23,4 18,5 15,2 16,3 13 7 21 12 N 1029,1 18 60 0,0
20.10.2018 13:00:00 17,7 7,1 22,2 16,9 15,1 16,3 10 5 18 10 NNW 1029,2 15 60 0,0
20.10.2018 12:00:00 16,5 9,0 20,5 15,1 15,1 16,3 7 4 16 9 N 1029,3 13 60 0,0
20.10.2018 11:00:00 14,0 9,6 16,8 13,4 15,1 16,3 9 5 14 8 N 1029,4 8 60 0,0
20.10.2018 10:00:00 11,6 9,5 12,5 12,1 15,2 16,3 6 3 8 5 NNW 1028,9 6 60 0,0
20.10.2018 09:00:00 8,5 8,3 6,2 11,3 15,4 16,3 0 0 5 3 N 1027,9 2,8 9 0,0
20.10.2018 08:00:00 7,8 7,6 3,2 11,8 15,6 16,3 2 1 8 5 WNW 1027,3 0,1 0 0,0
20.10.2018 07:00:00 8,0 7,6 4,9 12,6 15,7 16,3 6 3 8 5 NW 1027,0 3,5 0 0,0
20.10.2018 06:00:00 10,7 9,5 7,4 13,4 15,8 16,3 5 3 8 4 NNW 1026,4 6 0 0,0
20.10.2018 05:00:00 11,7 9,8 11,4 13,6 15,9 16,3 6 3 12 6 N 1026,0 6 0 0,0
20.10.2018 04:00:00 11,2 9,6 10,5 13,6 16,0 16,3 5 3 9 5 NNW 1025,5 5 0 0,0
20.10.2018 03:00:00 11,8 9,6 11,2 13,6 16,1 16,3 4 2 10 5 NNW 1025,4 6 0 0,0
20.10.2018 02:00:00 11,1 9,1 8,5 13,8 16,2 16,3 2 1 9 5 NNW 1025,0 5 0 0,0
20.10.2018 01:00:00 12,8 9,7 11,7 13,7 16,4 16,3 4 2 10 5 NNE 1024,6 6 0 0,0
20.10.2018 00:00:00 11,3 9,2 8,0 14,1 16,6 16,3 4 2 8 5 N 1024,8 6 0 0,0
19.10.2018 23:00:00 11,9 9,5 9,5 14,7 16,7 16,3 7 4 11 6 N 1024,8 6 0 0,0
19.10.2018 22:00:00 13,1 9,7 10,4 15,4 16,8 16,3 8 4 11 6 N 1024,2 7 0 0,0
19.10.2018 21:00:00 15,0 10,3 12,6 16,1 16,9 16,3 6 4 11 6 NNE 1023,5 7 0 0,0
19.10.2018 20:00:00 15,3 10,1 13,1 17,0 16,9 16,3 7 4 12 7 ENE 1023,0 8 0 0,0
19.10.2018 19:00:00 17,0 10,6 14,5 18,3 16,8 16,3 8 4 17 9 N 1022,0 10 0 0,0
19.10.2018 18:00:00 19,0 10,6 18,1 19,9 16,6 16,4 6 4 16 9 N 1021,6 11 51 0,0
19.10.2018 17:00:00 19,6 10,7 21,5 21,1 16,3 16,4 9 5 18 10 NNW 1021,6 13 60 0,0
19.10.2018 16:00:00 19,6 10,5 24,0 21,3 16,0 16,4 6 3 16 8 N 1021,8 10 60 0,0
19.10.2018 15:00:00 19,0 10,3 23,5 20,5 15,7 16,4 7 4 14 8 N 1022,0 11 60 0,0
19.10.2018 14:00:00 18,4 10,1 23,3 19,3 15,4 16,4 8 4 13 7 NNW 1022,7 9 60 0,0
19.10.2018 13:00:00 17,6 9,8 21,8 17,6 15,2 16,4 3 2 12 7 NW 1023,1 9 60 0,0
19.10.2018 12:00:00 16,1 9,9 19,5 15,6 15,2 16,4 5 3 14 7 N 1023,5 11 60 0,0
19.10.2018 11:00:00 14,3 9,8 16,5 13,8 15,2 16,4 10 5 13 7 NNW 1023,4 7 60 0,0
19.10.2018 10:00:00 11,4 9,1 12,2 12,5 15,3 16,4 9 5 13 7 NNW 1023,5 7 60 0,0
19.10.2018 09:00:00 9,1 8,0 8,4 11,8 15,5 16,4 7 4 13 7 NNW 1023,4 7 0 0,0
19.10.2018 08:00:00 8,5 7,7 7,3 11,9 15,6 16,4 9 5 14 7 N 1023,1 7 0 0,0
19.10.2018 07:00:00 9,1 8,1 7,7 12,2 15,8 16,4 6 4 14 7 N 1022,8 7 0 0,0
19.10.2018 06:00:00 9,3 8,4 7,5 12,6 15,9 16,4 7 4 16 9 N 1022,4 6 0 0,0
19.10.2018 05:00:00 9,6 8,6 8,2 12,9 16,1 16,4 9 5 13 7 NNW 1022,2 5 0 0,0
19.10.2018 04:00:00 10,3 8,9 9,0 13,3 16,2 16,4 8 4 14 7 N 1022,2 6 0 0,0
19.10.2018 03:00:00 10,8 9,0 9,6 13,7 16,4 16,4 10 6 17 9 N 1022,4 7 0 0,0
19.10.2018 02:00:00 11,6 9,5 10,2 14,1 16,5 16,4 12 6 16 9 NNW 1022,4 6 0 0,0
19.10.2018 01:00:00 12,4 10,0 10,9 14,5 16,7 16,4 10 6 16 8 NNW 1022,4 5 0 0,0
19.10.2018 00:00:00 13,1 10,3 11,7 15,0 16,8 16,4 13 7 18 10 NNW 1022,4 5 0 0,0
18.10.2018 23:00:00 13,7 10,4 11,8 15,5 16,9 16,4 9 5 17 9 NNW 1022,4 6 0 0,0
18.10.2018 22:00:00 14,9 10,8 13,2 16,1 17,0 16,4 11 6 21 11 N 1021,8 7 0 0,0
18.10.2018 21:00:00 15,8 11,0 14,3 16,7 17,0 16,4 13 7 19 11 N 1021,4 9 0 0,0
18.10.2018 20:00:00 16,6 11,3 15,1 17,5 17,0 16,4 13 7 24 13 N 1021,0 9 0 0,0
18.10.2018 19:00:00 18,0 11,6 16,6 18,6 16,9 16,4 14 8 31 17 N 1020,7 11 0 0,0
18.10.2018 18:00:00 19,4 11,9 19,1 19,9 16,8 16,4 20 11 40 22 N 1019,8 11 59 0,0
18.10.2018 17:00:00 21,2 11,5 22,4 20,9 16,5 16,4 20 11 32 17 N 1019,4 23 60 0,0
18.10.2018 16:00:00 22,0 11,5 24,7 21,3 16,1 16,4 22 12 31 17 N 1019,3 16 60 0,0
18.10.2018 15:00:00 21,8 11,3 26,1 21,0 15,8 16,4 15 8 26 14 N 1019,4 13 60 0,0
18.10.2018 14:00:00 21,6 11,3 25,9 19,9 15,5 16,4 11 6 20 11 NNW 1019,7 18 60 0,0
18.10.2018 13:00:00 19,3 11,1 23,8 18,2 15,3 16,4 14 7 21 11 N 1020,3 12 60 0,0
18.10.2018 12:00:00 17,9 11,0 21,8 16,1 15,2 16,4 11 6 21 11 NNW 1020,6 12 60 0,0
18.10.2018 11:00:00 15,5 10,8 18,4 14,4 15,3 16,4 14 7 19 10 N 1020,9 11 60 0,0
18.10.2018 10:00:00 12,9 10,0 14,3 12,9 15,4 16,4 8 4 14 8 NNW 1021,0 7 60 0,0
18.10.2018 09:00:00 10,2 9,0 9,6 11,8 15,5 16,4 5 3 8 5 NNW 1020,7 7 8 0,0
18.10.2018 08:00:00 7,9 7,5 4,8 12,1 15,6 16,4 3 2 5 3 NNW 1020,1 4,8 0 0,0
18.10.2018 07:00:00 9,2 8,3 6,0 12,5 15,8 16,4 2 1 10 5 NNW 1019,5 7 0 0,0

tt = Température de l'air
td = dewpoint
tt 5cm = Température de l'air 5cm
tt -5cm = Température de l'air -5cm
tt -20cm = Température de l'air -20cm
tt -100cm = Température de l'air -100cm
ff = Vitesse du vent
fx = gusts
dd = Direction du vent
ppp = reduced air pressure
vv = visibility
sd = Ensoleillement
rr = Quantités de précipitations

stations d'obs. à proximité